Location: Keppel Henge
(44.7900°N, 80.9447°W)
Time: 01:38:07
(UTC-05:00)

Vanguard 1 Rocket - Pass Details

Date: 23 October 2017
Orbit: 655 x 4222 km, 34.3° (Epoch: 18 November)

Event Time Altitude Azimuth Distance (km) Brightness Sun altitude
Rises 10:35:32 0° 258° (WSW) 3,867 10.4 23.9°
Reaches altitude 10° 10:39:06 10° 245° (WSW) 2,529 9.6 24.3°
Maximum altitude 10:43:24 23° 193° (SSW) 1,476 9.2 24.8°
Drops below altitude 10° 10:46:59 10° 138° (SE) 2,060 11.2 25.2°
Sets 10:49:33 0° 123° (ESE) 2,977 11.2 25.5°
